FW7705 Weather Reports


Display with metric or nautical units.
time (UTC)temp
F
wind
direction
speed
MPH
gust
MPH
rain 1hr
in
rain 24hr
in
rain mn
in
humidity
%
barometer
mb
20260906105416 58 48 2.0 2.0 0.00 0.00 0.00 99 1016.2
20260906104912 58 42 2.0 2.0 0.00 0.00 0.00 99 1016.2
20260906104410 58 29 1.0 1.0 0.00 0.00 0.00 99 1016.1
20260906103909 58 19 3.0 3.0 0.00 0.00 0.00 99 1016.0
20260906103408 58 22 4.0 4.0 0.00 0.00 0.00 99 1015.9
20260906102904 58 33 4.0 6.0 0.00 0.00 0.00 99 1016.0
20260906102403 58 42 2.0 2.0 0.00 0.00 0.00 99 1016.0
20260906101858 58 29 2.0 2.0 0.00 0.00 0.00 99 1016.0
20260906101353 58 29 2.0 4.0 0.00 0.00 0.00 99 1015.9
20260906100848 58 26 1.0 1.0 0.00 0.00 0.00 99 1015.8
20260906100347 58 26 1.0 1.0 0.00 0.00 0.00 99 1015.9
20260906095842 58 26 0.0 1.0 0.00 0.00 0.00 99 1015.8
20260906095338 58 26 0.0 1.0 0.00 0.00 0.00 99 1015.8
20260906094837 58 26 0.0 0.0 0.00 0.00 0.00 99 1015.6
20260906094332 58 26 0.0 0.0 0.00 0.00 0.00 99 1015.5
20260906093829 58 26 0.0 0.0 0.00 0.00 0.00 99 1015.2
20260906093325 58 26 0.0 0.0 0.00 0.00 0.00 99 1015.5
20260906092820 58 26 1.0 2.0 0.00 0.00 0.00 99 1015.3
20260906092319 58 24 1.0 2.0 0.00 0.00 0.00 99 1015.4
20260906091815 58 28 1.0 1.0 0.00 0.00 0.00 99 1015.2
20260906091311 58 28 0.0 0.0 0.00 0.00 0.00 99 1015.3
20260906090807 58 28 2.0 2.0 0.00 0.00 0.00 99 1015.2
20260906090306 58 28 2.0 2.0 0.00 0.00 0.00 99 1015.0
20260906085806 57 28 2.0 2.0 0.00 0.00 0.00 99 1015.2
20260906085306 57 28 1.0 1.0 0.00 0.00 0.00 99 1015.0
20260906084800 57 28 1.0 1.0 0.00 0.00 0.00 99 1015.1
20260906084300 56 338 4.0 4.0 0.00 0.00 0.00 99 1015.1
20260906083754 56 29 0.0 0.0 0.00 0.00 0.00 99 1014.8
20260906083250 55 29 0.0 0.0 0.00 0.00 0.00 99 1014.8
20260906082745 56 29 0.0 0.0 0.00 0.00 0.00 99 1014.9
20260906082240 57 29 0.0 0.0 0.00 0.00 0.00 99 1014.7
20260906081737 57 29 0.0 0.0 0.00 0.00 0.00 99 1014.8
20260906081237 57 29 0.0 0.0 0.00 0.00 0.00 99 1014.5
20260906080734 57 29 0.0 1.0 0.00 0.00 0.00 99 1014.5
20260906080230 57 29 0.0 1.0 0.00 0.00 0.00 99 1014.7
20260906075729 57 29 0.0 0.0 0.00 0.00 0.00 99 1014.7
20260906075229 57 29 0.0 0.0 0.00 0.00 0.00 99 1014.7
20260906074725 58 29 0.0 0.0 0.00 0.00 0.00 99 1014.9
20260906074224 57 29 0.0 0.0 0.00 0.00 0.00 99 1014.7
20260906073724 57 29 1.0 1.0 0.00 0.00 0.00 99 1014.9
20260906073219 57 29 1.0 2.0 0.00 0.00 0.00 99 1014.8
20260906072715 58 29 0.0 0.0 0.00 0.00 0.00 99 1014.7
20260906072210 57 29 0.0 1.0 0.00 0.00 0.00 99 1014.8
20260906071706 57 29 0.0 0.0 0.00 0.00 0.00 99 1014.7
20260906071206 57 29 0.0 0.0 0.00 0.00 0.00 99 1014.8
20260906070703 58 29 0.0 0.0 0.00 0.00 0.00 99 1014.9
20260906070158 58 29 0.0 0.0 0.00 0.00 0.00 99 1015.0
20260906065658 58 29 0.0 0.0 0.00 0.00 0.00 99 1014.8
20260906065153 58 29 0.0 1.0 0.00 0.00 0.00 99 1014.8
20260906064649 58 29 1.0 1.0 0.00 0.00 0.00 99 1014.7
20260906064144 58 29 1.0 1.0 0.00 0.00 0.00 99 1014.8
20260906063639 58 29 0.0 1.0 0.00 0.00 0.00 99 1014.8
20260906063135 58 29 1.0 1.0 0.00 0.00 0.00 99 1015.0
20260906062630 58 29 0.0 1.0 0.00 0.00 0.00 99 1014.9
20260906062129 58 29 1.0 1.0 0.00 0.00 0.00 99 1015.1
20260906061625 58 29 0.0 1.0 0.00 0.00 0.00 99 1015.0
20260906061125 58 29 0.0 1.0 0.00 0.00 0.00 99 1015.1
20260906060622 58 29 1.0 1.0 0.00 0.00 0.00 99 1014.8
20260906060119 58 29 0.0 0.0 0.00 0.00 0.00 99 1014.8
20260906055614 57 29 0.0 1.0 0.00 0.00 0.00 99 1015.1
20260906055109 57 29 0.0 1.0 0.00 0.00 0.00 99 1015.1
20260906054604 58 29 0.0 1.0 0.00 0.00 0.00 99 1015.2
20260906054059 58 29 1.0 1.0 0.00 0.00 0.00 99 1015.1
20260906053556 58 29 0.0 1.0 0.00 0.00 0.00 99 1015.2
20260906053051 57 29 0.0 0.0 0.00 0.00 0.00 99 1015.3
20260906052546 57 29 1.0 1.0 0.00 0.00 0.00 99 1015.2
20260906052043 58 29 0.0 0.0 0.00 0.00 0.00 99 1015.5
20260906051539 57 29 0.0 0.0 0.00 0.00 0.00 99 1015.1
20260906051034 57 29 0.0 0.0 0.00 0.00 0.00 99 1015.3
20260906050529 57 29 0.0 0.0 0.00 0.00 0.00 99 1015.0
20260906050024 57 29 0.0 0.0 0.00 0.00 0.00 99 1015.2
20260906045522 57 29 0.0 0.0 0.00 0.00 0.00 99 1015.3
20260906045018 57 29 0.0 0.0 0.00 0.00 0.00 99 1015.2
20260906044513 57 29 0.0 0.0 0.00 0.00 0.00 99 1015.3
20260906044009 58 29 0.0 0.0 0.00 0.00 0.00 99 1015.1
20260906043504 58 29 1.0 1.0 0.00 0.00 0.00 99 1014.9
20260906043000 58 29 0.0 1.0 0.00 0.00 0.00 99 1015.3
20260906042459 58 29 0.0 1.0 0.00 0.00 0.00 99 1015.2
20260906041959 57 29 1.0 1.0 0.00 0.00 0.00 98 1015.2
20260906041456 57 29 0.0 0.0 0.00 0.00 0.00 98 1015.2
20260906040955 58 29 0.0 1.0 0.00 0.00 0.00 98 1015.1
20260906040450 58 29 0.0 0.0 0.00 0.00 0.00 98 1015.1
20260906035945 58 29 0.0 0.0 0.00 0.00 0.00 98 1015.0
20260906035441 58 29 0.0 0.0 0.00 0.00 0.00 97 1015.1
20260906034937 58 29 0.0 0.0 0.00 0.00 0.00 97 1015.2
20260906034437 59 29 0.0 0.0 0.00 0.00 0.00 97 1015.1
20260906033932 59 29 1.0 1.0 0.00 0.00 0.00 97 1015.1
20260906033432 59 29 0.0 1.0 0.00 0.00 0.00 97 1014.9
20260906032928 59 29 1.0 1.0 0.00 0.00 0.00 97 1014.9
20260906032425 59 29 0.0 0.0 0.00 0.00 0.00 96 1015.1
20260906031924 59 29 0.0 1.0 0.00 0.00 0.00 96 1015.2
20260906031420 59 29 0.0 1.0 0.00 0.00 0.00 96 1014.9
20260906030915 59 29 1.0 1.0 0.00 0.00 0.00 97 1014.8
20260906030410 59 29 0.0 1.0 0.00 0.00 0.00 96 1014.9
20260906025904 59 29 0.0 0.0 0.00 0.00 0.00 96 1014.8
20260906025358 59 29 0.0 0.0 0.00 0.00 0.00 95 1014.8
20260906024857 60 29 0.0 0.0 0.00 0.00 0.00 95 1014.8
20260906024356 60 29 0.0 1.0 0.00 0.00 0.00 95 1014.8
20260906023852 60 29 0.0 1.0 0.00 0.00 0.00 95 1014.7
20260906023349 60 29 1.0 1.0 0.00 0.00 0.00 95 1014.8
20260906022848 60 29 1.0 2.0 0.00 0.00 0.00 95 1014.6
20260906022343 60 29 0.0 0.0 0.00 0.00 0.00 95 1014.7
20260906021839 60 29 0.0 0.0 0.00 0.00 0.00 94 1014.6
20260906021338 60 29 0.0 1.0 0.00 0.00 0.00 94 1014.9
20260906020833 60 29 1.0 1.0 0.00 0.00 0.00 94 1014.7
20260906020332 60 29 2.0 2.0 0.00 0.00 0.00 95 1014.6
20260906015827 60 28 2.0 2.0 0.00 0.00 0.00 95 1014.5
20260906015326 59 29 1.0 2.0 0.00 0.00 0.00 97 1014.8
20260906014826 59 29 0.0 1.0 0.00 0.00 0.00 97 1014.7
20260906014321 59 30 0.0 0.0 0.00 0.00 0.00 97 1014.6
20260906013818 59 30 0.0 0.0 0.00 0.00 0.00 96 1014.5
20260906013313 59 30 0.0 0.0 0.00 0.00 0.00 96 1014.5
20260906012808 59 30 0.0 0.0 0.00 0.00 0.00 95 1014.5
20260906012306 59 30 0.0 0.0 0.00 0.00 0.00 94 1014.4
20260906011758 60 30 0.0 0.0 0.00 0.00 0.00 93 1014.5
20260906011258 60 30 0.0 0.0 0.00 0.00 0.00 92 1014.5
20260906010754 60 30 0.0 1.0 0.00 0.00 0.00 94 1014.4
20260906010250 60 30 0.0 0.0 0.00 0.00 0.00 94 1014.5
20260906005745 60 29 0.0 0.0 0.00 0.00 0.00 94 1014.4
20260906005244 60 30 0.0 0.0 0.00 0.00 0.00 94 1014.1
20260906004737 61 30 0.0 0.0 0.00 0.00 0.00 93 1014.3
20260906004232 61 29 0.0 0.0 0.00 0.00 0.00 92 1014.3
20260906003727 62 30 0.0 1.0 0.00 0.00 0.00 91 1014.1
20260906003223 62 30 0.0 0.0 0.00 0.00 0.00 90 1014.0
20260906002722 63 29 0.0 0.0 0.00 0.00 0.00 89 1014.3
20260906002217 63 29 0.0 0.0 0.00 0.00 0.00 89 1014.3
20260906001713 63 29 0.0 0.0 0.00 0.00 0.00 88 1014.1
20260906001213 63 29 0.0 1.0 0.00 0.00 0.00 89 1013.8
20260906000709 63 30 1.0 1.0 0.00 0.00 0.00 90 1014.0
20260906000204 63 29 0.0 1.0 0.00 0.00 0.00 90 1013.8
20260905235703 63 29 0.0 0.0 0.00 0.00 0.00 90 1013.8
20260905235158 63 30 0.0 0.0 0.00 0.00 0.00 89 1013.9
20260905234653 64 30 0.0 0.0 0.00 0.00 0.00 88 1014.0
20260905234148 64 30 0.0 1.0 0.00 0.00 0.00 87 1013.9
20260905233643 64 29 0.0 1.0 0.00 0.00 0.00 86 1014.0
20260905233142 65 29 1.0 1.0 0.00 0.00 0.00 86 1013.9
20260905232638 65 29 2.0 2.0 0.00 0.00 0.00 85 1014.3
20260905232134 65 29 2.0 3.0 0.00 0.00 0.00 85 1014.0
20260905231629 65 24 0.0 0.0 0.00 0.00 0.00 85 1014.1
20260905231125 66 24 1.0 2.0 0.00 0.00 0.00 83 1013.8
20260905230621 67 25 1.0 1.0 0.00 0.00 0.00 81 1014.1
20260905230119 67 26 2.0 2.0 0.00 0.00 0.00 80 1013.9
20260905225618 67 45 2.0 3.0 0.00 0.00 0.00 81 1013.8
20260905225113 67 59 1.0 1.0 0.00 0.00 0.00 81 1013.9
20260905224613 66 7 4.0 4.0 0.00 0.00 0.00 81 1013.8
20260905224112 67 28 2.0 3.0 0.00 0.00 0.00 80 1014.0
20260905223610 67 62 2.0 2.0 0.00 0.00 0.00 79 1013.7
20260905223106 68 25 1.0 2.0 0.00 0.00 0.00 79 1013.8
20260905222606 68 34 5.0 6.0 0.00 0.00 0.00 78 1013.6
20260905222101 68 30 4.0 4.0 0.00 0.00 0.00 78 1013.7
20260905221557 68 11 4.0 6.0 0.00 0.00 0.00 77 1013.6
20260905221053 68 21 2.0 2.0 0.00 0.00 0.00 76 1013.5
20260905220549 68 347 2.0 2.0 0.00 0.00 0.00 76 1013.7
20260905220045 69 40 3.0 3.0 0.00 0.00 0.00 77 1013.6
20260905215544 69 334 2.0 3.0 0.00 0.00 0.00 75 1013.4
20260905215040 69 317 2.0 3.0 0.00 0.00 0.00 75 1013.4
20260905214536 69 264 2.0 3.0 0.00 0.00 0.00 75 1013.2
20260905214031 69 6 3.0 3.0 0.00 0.00 0.00 72 1013.3
20260905213526 69 2 3.0 3.0 0.00 0.00 0.00 71 1013.0
20260905213022 70 359 3.0 4.0 0.00 0.00 0.00 72 1013.1
20260905212516 70 354 3.0 4.0 0.00 0.00 0.00 71 1013.2
20260905212017 70 16 2.0 2.0 0.00 0.00 0.00 72 1013.1
20260905211511 70 341 1.0 1.0 0.00 0.00 0.00 72 1013.2
20260905211007 70 331 4.0 6.0 0.00 0.00 0.00 74 1013.1
20260905210503 70 21 6.0 6.0 0.00 0.00 0.00 71 1013.1
20260905210002 70 339 3.0 4.0 0.00 0.00 0.00 71 1013.1
20260905205457 71 18 4.0 7.0 0.00 0.00 0.00 69 1013.1
20260905204955 71 358 2.0 4.0 0.00 0.00 0.00 73 1013.2
20260905204451 70 40 3.0 4.0 0.00 0.00 0.00 74 1013.1
20260905203950 70 31 4.0 4.0 0.00 0.00 0.00 71 1013.0
20260905203446 70 2 2.0 3.0 0.00 0.00 0.00 73 1013.1
20260905202941 70 39 2.0 2.0 0.00 0.00 0.00 71 1013.2
20260905202436 70 23 5.0 7.0 0.00 0.00 0.00 73 1013.3
20260905201932 71 4 4.0 4.0 0.00 0.00 0.00 70 1013.2
20260905201427 71 6 4.0 4.0 0.00 0.00 0.00 68 1013.3
20260905200927 70 347 4.0 4.0 0.00 0.00 0.00 71 1013.1
20260905200423 71 325 2.0 2.0 0.00 0.00 0.00 72 1013.2
20260905195921 71 39 2.0 2.0 0.00 0.00 0.00 70 1013.3
20260905195416 71 350 2.0 3.0 0.00 0.00 0.00 67 1013.0
20260905194912 73 303 3.0 4.0 0.00 0.00 0.00 65 1012.9
20260905194411 73 10 4.0 7.0 0.00 0.00 0.00 66 1013.0
20260905193911 72 14 6.0 7.0 0.00 0.00 0.00 68 1013.1
20260905193412 70 323 4.0 4.0 0.00 0.00 0.00 72 1013.2
20260905192907 70 328 2.0 3.0 0.00 0.00 0.00 72 1013.2
20260905192402 71 316 4.0 4.0 0.00 0.00 0.00 67 1013.1
20260905191857 72 341 6.0 8.0 0.00 0.00 0.00 63 1013.1
20260905191356 73 349 4.0 6.0 0.00 0.00 0.00 63 1013.1
20260905190856 73 356 4.0 4.0 0.00 0.00 0.00 65 1012.9
20260905190354 73 40 4.0 4.0 0.00 0.00 0.00 62 1013.1
20260905185853 71 305 4.0 4.0 0.00 0.00 0.00 70 1013.1
20260905185348 71 344 4.0 4.0 0.00 0.00 0.00 66 1013.1
20260905184847 71 349 3.0 4.0 0.00 0.00 0.00 66 1013.1
20260905184347 72 303 4.0 4.0 0.00 0.00 0.00 63 1013.0
20260905183845 73 271 3.0 3.0 0.00 0.00 0.00 66 1012.9
20260905183341 73 318 4.0 6.0 0.00 0.00 0.00 64 1012.9
20260905182841 70 218 1.0 1.0 0.00 0.00 0.00 66 1013.0
20260905182341 69 10 2.0 3.0 0.00 0.00 0.00 69 1013.3
20260905181837 70 297 2.0 2.0 0.00 0.00 0.00 69 1013.3
20260905181336 70 61 0.0 1.0 0.00 0.00 0.00 67 1013.2
20260905180835 71 324 3.0 4.0 0.00 0.00 0.00 64 1012.9
20260905180331 71 335 3.0 7.0 0.00 0.00 0.00 63 1013.0
20260905175825 70 15 2.0 2.0 0.00 0.00 0.00 68 1013.1
20260905175320 70 20 1.0 2.0 0.00 0.00 0.00 69 1013.1
20260905174815 70 24 2.0 3.0 0.00 0.00 0.00 72 1013.1
20260905174311 70 30 2.0 2.0 0.00 0.00 0.00 69 1013.2
20260905173806 70 281 3.0 4.0 0.00 0.00 0.00 71 1013.0
20260905173302 70 4 2.0 2.0 0.00 0.00 0.00 70 1013.3
20260905172802 69 25 2.0 2.0 0.00 0.00 0.00 71 1013.2
20260905172300 70 348 4.0 4.0 0.00 0.00 0.00 68 1013.4
20260905171757 70 32 2.0 3.0 0.00 0.00 0.00 68 1013.2
20260905171253 70 43 3.0 3.0 0.00 0.00 0.00 67 1013.4
20260905170749 69 17 5.0 6.0 0.00 0.00 0.00 69 1013.5
20260905170245 69 349 7.0 9.0 0.00 0.00 0.00 67 1013.6
20260905165744 69 9 4.0 4.0 0.00 0.00 0.00 70 1013.5
20260905165240 70 20 5.0 8.0 0.00 0.00 0.00 67 1013.5
20260905164739 71 339 6.0 7.0 0.00 0.00 0.00 64 1013.5
20260905164234 73 47 2.0 2.0 0.00 0.00 0.00 63 1013.4
20260905163730 71 39 2.0 2.0 0.00 0.00 0.00 67 1013.5
20260905163226 70 2 6.0 9.0 0.00 0.00 0.00 69 1013.5
20260905162722 71 44 4.0 4.0 0.00 0.00 0.00 67 1013.2
20260905162221 72 35 4.0 6.0 0.00 0.00 0.00 66 1013.3
20260905161716 70 22 3.0 6.0 0.00 0.00 0.00 74 1013.4
20260905161215 69 18 3.0 4.0 0.00 0.00 0.00 69 1013.6
20260905160713 70 13 3.0 4.0 0.00 0.00 0.00 68 1013.5
20260905160208 69 261 3.0 3.0 0.00 0.00 0.00 74 1013.4
20260905155708 68 352 5.0 6.0 0.00 0.00 0.00 72 1013.8
20260905155207 68 319 3.0 4.0 0.00 0.00 0.00 74 1013.6
20260905154701 69 322 6.0 8.0 0.00 0.00 0.00 70 1013.6
20260905154157 69 16 5.0 6.0 0.00 0.00 0.00 71 1013.6
20260905153653 71 26 3.0 3.0 0.00 0.00 0.00 70 1013.8
20260905153148 71 351 3.0 4.0 0.00 0.00 0.00 68 1013.4
20260905152643 71 346 7.0 10.0 0.00 0.00 0.00 67 1013.6
20260905152138 69 318 5.0 6.0 0.00 0.00 0.00 73 1013.5
20260905151632 68 316 3.0 3.0 0.00 0.00 0.00 73 1013.6
20260905151128 68 348 5.0 6.0 0.00 0.00 0.00 71 1013.6
20260905150623 69 310 4.0 4.0 0.00 0.00 0.00 72 1013.8
20260905150121 68 286 4.0 6.0 0.00 0.00 0.00 77 1013.7
20260905145620 67 348 2.0 3.0 0.00 0.00 0.00 78 1013.8
20260905145119 67 6 4.0 4.0 0.00 0.00 0.00 77 1013.6
20260905144614 67 317 2.0 4.0 0.00 0.00 0.00 78 1013.6
20260905144113 67 274 3.0 6.0 0.00 0.00 0.00 78 1013.7
20260905143608 67 16 3.0 4.0 0.00 0.00 0.00 78 1013.5
20260905143103 67 53 1.0 2.0 0.00 0.00 0.00 78 1013.7
20260905142602 67 330 5.0 6.0 0.00 0.00 0.00 77 1013.7
20260905142101 68 15 3.0 3.0 0.00 0.00 0.00 78 1013.6
20260905141601 68 45 6.0 8.0 0.00 0.00 0.00 77 1013.7
20260905141058 67 7 5.0 7.0 0.00 0.00 0.00 83 1013.7
20260905140553 66 331 4.0 4.0 0.00 0.00 0.00 81 1013.8
20260905140052 67 64 7.0 8.0 0.00 0.00 0.00 79 1013.7
20260905135547 66 18 5.0 7.0 0.00 0.00 0.00 80 1013.7
20260905135047 66 22 4.0 4.0 0.00 0.00 0.00 81 1013.6
20260905134542 66 333 4.0 7.0 0.00 0.00 0.00 82 1013.5
20260905134041 66 46 3.0 3.0 0.00 0.00 0.00 83 1013.5
20260905133536 66 35 2.0 3.0 0.00 0.00 0.00 86 1013.5
20260905133036 66 35 3.0 3.0 0.00 0.00 0.00 85 1013.6
20260905132536 66 20 2.0 3.0 0.00 0.00 0.00 83 1013.5
20260905132031 65 31 2.0 3.0 0.00 0.00 0.00 83 1013.6
20260905131526 65 307 5.0 8.0 0.00 0.00 0.00 84 1013.5
20260905131022 65 308 2.0 2.0 0.00 0.00 0.00 85 1013.4
20260905130520 65 240 5.0 6.0 0.00 0.00 0.00 85 1013.6
20260905130016 64 346 2.0 2.0 0.00 0.00 0.00 86 1013.6
20260905125515 64 42 2.0 2.0 0.00 0.00 0.00 85 1013.7
20260905125011 64 72 1.0 2.0 0.00 0.00 0.00 87 1013.8
20260905124508 63 318 2.0 3.0 0.00 0.00 0.00 87 1013.9
20260905124003 63 312 3.0 3.0 0.00 0.00 0.00 88 1014.1
20260905123459 63 3 1.0 2.0 0.00 0.00 0.00 88 1014.0
20260905122955 62 22 2.0 3.0 0.00 0.00 0.00 90 1014.1
20260905122454 62 248 1.0 1.0 0.00 0.00 0.00 93 1013.9
20260905121949 61 62 1.0 1.0 0.00 0.00 0.00 93 1013.9
20260905121445 61 20 2.0 2.0 0.00 0.00 0.00 96 1014.0
20260905120944 60 322 1.0 1.0 0.00 0.00 0.00 98 1013.9
20260905120439 60 20 1.0 1.0 0.00 0.00 0.00 99 1013.7
20260905115934 59 337 3.0 3.0 0.00 0.00 0.00 99 1013.5
20260905115433 59 347 2.0 2.0 0.00 0.00 0.00 99 1013.5
20260905114928 58 348 2.0 2.0 0.00 0.00 0.00 99 1013.4
20260905114428 58 348 2.0 2.0 0.00 0.00 0.00 99 1013.3
20260905113927 58 348 1.0 1.0 0.00 0.00 0.00 99 1013.5
20260905113422 58 348 2.0 2.0 0.00 0.00 0.00 99 1013.3
20260905112918 57 348 1.0 1.0 0.00 0.00 0.00 99 1013.5
20260905112413 57 348 0.0 0.0 0.00 0.00 0.00 99 1013.4
20260905111909 57 348 0.0 0.0 0.00 0.00 0.00 99 1013.3
20260905111408 57 348 0.0 0.0 0.00 0.00 0.00 99 1013.4
20260905110908 57 348 0.0 0.0 0.00 0.00 0.00 99 1013.0
20260905110402 57 348 0.0 0.0 0.00 0.00 0.00 99 1013.2
20260905105857 57 348 0.0 0.0 0.00 0.00 0.00 99 1013.4